[[{"header":{"parameterUnit":"m.s-1","parameterCategory":1,"la1":30.2991,"la2":30.254,"lo1":-89.0895,"lo2":-89.0444,"dy":0.0017,"dx":0.0017,"nx":28,"ny":28,"refTime":"2023-08-15T03:00:00:Z","depth":0,"parameterNumber":2,"parameterNumberName":"U-component_of_WINDS"},"data":[0,0,0,0,0,0,0,0,0,0,0,0,0,0,0,0,0,0,0,0,0,0,0,0,0,0,0,0,0,0,0,0,0,0,0,0,0,0,0,0,0,0,0,0,0,0,0,0,0,0,0,0,0,0,0,0,0,0,-0.8781,-0.8782,0,-0.8893,-0.8894,-0.8895,-0.8865,-0.8863,-0.8861,-0.8859,-0.8976,-0.8981,-0.8986,0,0,0,0,0,0,0,0,0,0,0,0,0,-0.8545,-0.8549,-0.8781,-0.8782,-0.8784,-0.8892,-0.8894,-0.8895,-0.8866,-0.8863,-0.886,-0.8857,-0.8974,-0.898,-0.8987,0,0,0,0,0,0,0,0,0,0,0,0,0,-0.8651,-0.8551,-0.8781,-0.8782,-0.8783,-0.8892,-0.8894,-0.8896,-0.8866,-0.8863,-0.8859,-0.8856,-0.8972,-0.898,-0.8988,-0.9103,0,0,-0.9011,-0.9015,0,0,0,0,0,0,0,0,-0.8645,-0.866,-0.878,-0.8782,-0.8783,-0.8861,-0.8854,-0.8966,-0.8867,-0.8835,-0.8858,-0.8855,-0.8941,-0.8951,-0.8979,-0.9109,-0.9114,-0.9012,-0.9017,-0.902,-0.9022,0,0,0,0,0,0,0,-0.8638,-0.8655,-0.8825,-0.8782,-0.8784,-0.8778,-0.8789,-0.8875,-0.8905,-0.8837,-0.8835,-0.8849,-0.8941,-0.8972,-0.8982,-0.9116,-0.9012,-0.9019,-0.9024,-0.9027,-0.9347,-0.9351,0,0,0,0,0,0,-0.8629,-0.8649,-0.8822,-0.8828,-0.8704,-0.8785,-0.8797,-0.884,-0.8904,-0.8911,-0.8851,-0.8847,-0.896,-0.8973,-0.8986,-0.9127,-0.902,-0.9028,-0.9032,-0.9343,-0.9348,-0.9352,0,0,0,0,0,0,-0.8624,-0.8644,-0.8817,-0.8738,-0.876,-0.8792,-0.884,-0.8844,-0.8875,-0.8915,-0.8921,-0.8877,-0.8958,-0.8975,-0.9075,-0.9131,-0.9031,-0.9038,-0.9339,-0.9345,-0.935,-0.941,0,0,0,0,0,0,-0.8617,-0.8643,-0.8686,-0.8739,-0.8764,-0.8903,-0.8844,-0.8848,-0.8888,-0.8883,-0.8941,-0.8947,-0.8957,-0.9063,-0.9082,-0.914,-0.9044,-0.9334,-0.9341,-0.9348,-0.9403,-0.9417,-0.9429,0,0,0,0,0,-0.8609,-0.8699,-0.8689,-0.871,-0.8819,-0.8906,-0.8921,-0.8929,-0.8893,-0.8938,-0.8963,-0.8945,-0.9121,-0.9073,-0.9095,-0.9156,-0.9331,-0.9339,-0.9348,-0.9398,-0.9415,-0.9429,0,0,0,0,0,0,-0.8653,-0.8706,-0.8695,-0.8805,-0.8852,-0.8901,-0.8958,-0.8946,-0.9005,-0.8998,-0.9006,-0.902,-0.9122,-0.9148,-0.9094,-0.9272,-0.9221,-0.9234,-0.9251,-0.9268,-0.928,-0.9273,-0.9051,0,0,0,0,0,-0.8675,-0.8741,-0.8784,-0.8877,-0.8901,-0.8926,-0.8964,-0.8966,-0.9015,-0.9034,-0.9067,-0.9116,-0.9182,-0.9226,-0.9289,-0.9406,-0.9419,-0.9459,-0.9471,-0.9482,-0.9494,-0.956,-0.9578,-0.938,-0.938,-0.938,0,0,-0.8723,-0.876,-0.8801,-0.8887,-0.8923,-0.8992,-0.8942,-0.9017,-0.9069,-0.9046,-0.9142,-0.9168,-0.9223,-0.9332,-0.9382,-0.9358,-0.9551,-0.9493,-0.9501,-0.9508,-0.957,-0.9589,-0.9606,-0.9386,-0.9385,-0.9384,0,0,-0.8845,-0.8879,-0.8961,-0.8998,-0.9053,-0.9069,-0.9088,-0.914,-0.9156,-0.9252,-0.9237,-0.9299,-0.9412,-0.9453,-0.9488,-0.9625,-0.9612,-0.9645,-0.9714,-0.9777,-0.9793,-0.9807,-0.9858,-0.9876,-0.9657,-0.9657,-0.9657,0,-0.8898,-0.9,-0.9005,-0.9082,-0.9121,-0.9102,-0.9186,-0.9222,-0.9295,-0.9323,-0.9293,-0.9436,-0.9472,-0.9591,-0.9624,-0.9653,-0.9677,-0.964,-0.979,-0.9804,-0.9817,-0.9866,-0.9885,-0.9661,-0.966,-0.966,-0.966,0,-0.9063,-0.9135,-0.9194,-0.9265,-0.931,-0.939,-0.9408,-0.9453,-0.9451,-0.9471,-0.957,-0.9611,-0.9683,-0.9711,-0.971,-0.9831,-0.9814,-0.9787,-0.9737,-0.984,-0.9886,-0.9905,-0.9666,-0.9665,-0.9664,-0.9663,0,0,-0.9219,-0.929,-0.9312,-0.9345,-0.9403,-0.9459,-0.9538,-0.9608,-0.9647,-0.9698,-0.9766,-0.9862,-0.9838,-0.9878,-0.9881,-0.9937,-1.0046,-0.9904,-0.9905,-0.9931,-1.0183,-1.0205,-1.0226,-1.0036,-1.0039,-1.0042,-1.0179,0,-0.9348,-0.9487,-0.9493,-0.962,-0.9687,-0.967,-0.9739,-0.9783,-0.9803,-0.9863,-0.9885,-0.9954,-0.9916,-0.9941,-0.9994,-1.0021,-1.0097,-1.0011,-1.0101,-1.0104,-1.009,-1.025,-1.0272,-1.04,-1.0197,-1.02,-1.0202,0,-0.9518,-0.9573,-0.9707,-0.9757,-0.9785,-0.9847,-0.9912,-0.9969,-1.0019,-1.0029,-1.0074,-1.0069,-1.0152,-1.0096,-1.0211,-1.0152,-1.0189,-1.0208,-1.0213,-1.0224,-1.0161,-1.0267,-1.0441,-1.0461,-1.023,-1.0228,-1.0226,0,-0.962,-0.9728,-0.9822,-0.985,-0.991,-0.9955,-0.9982,-1.0028,-1.007,-1.0126,-1.0154,-1.0219,-1.0256,-1.0307,-1.032,-1.0278,-1.0436,-1.0381,-1.0449,-1.0449,-1.0485,-1.0483,-1.0669,-1.0504,-1.0504,-1.0504,-1.0503,0,-0.9765,-0.9848,-0.987,-0.9928,-1.0021,-1.0027,-1.0119,-1.0143,-1.0185,-1.0249,-1.0237,-1.0297,-1.031,-1.0373,-1.0384,-1.0479,-1.0494,-1.0507,-1.0509,-1.0509,-1.0508,-1.0535,-1.0528,-1.0509,-1.0508,-1.0507,-1.0506,0,-0.9897,-0.9914,-1.0016,-1.0064,-1.0078,-1.0145,-1.0187,-1.0243,-1.0261,-1.0341,-1.0361,-1.0389,-1.0463,-1.0481,-1.0568,-1.0576,-1.0688,-1.0681,-1.0672,-1.0672,-1.074,-1.0734,-1.0952,-1.0982,-1.0796,-1.0797,-1.0799,0,-0.9989,-1.0053,-1.0108,-1.0149,-1.0178,-1.0245,-1.0287,-1.0296,-1.034,-1.0402,-1.0452,-1.0524,-1.0582,-1.0701,-1.073,-1.0798,-1.0793,-1.0865,-1.0803,-1.0802,-1.0797,-1.0794,-1.0801,-1.0878,-1.088,-1.0881,-1.0883,0,-1.0153,-1.0158,-1.0219,-1.0283,-1.0334,-1.0385,-1.0433,-1.0468,-1.0484,-1.0535,-1.0609,-1.0655,-1.0744,-1.0816,-1.0884,-1.0913,-1.0902,-1.0901,-1.0921,-1.0923,-1.0916,-1.0923,-1.0706,-1.0897,-1.0895,-1.0894,-1.0894,-1.0893,-1.0269,-1.0325,-1.0373,-1.0441,-1.0479,-1.0525,-1.058,-1.0605,-1.0667,-1.074,-1.0741,-1.0823,-1.0872,-1.0962,-1.0995,-1.106,-1.1038,-1.1066,-1.1074,-1.1081,-1.1088,-1.0903,-1.1072,-1.1072,-1.1071,-1.1071,-1.1071,0,-1.0434,-1.0463,-1.0526,-1.0595,-1.0649,-1.0631,-1.0684,-1.0731,-1.0803,-1.0849,-1.0907,-1.0993,-1.1063,-1.1098,-1.1167,-1.1213,-1.121,-1.1231,-1.1229,-1.1237,-1.1103,-1.108,-1.1233,-1.1233,-1.1233,-1.1233,-1.1233,-1.1233,-1.0526,-1.0621,-1.0632,-1.0745,-1.0774,-1.0854,-1.0886,-1.0928,-1.0965,-1.1062,-1.112,-1.1142,-1.1184,-1.1256,-1.132,-1.1329,-1.1356,-1.1381,-1.1387,-1.1262,-1.1246,-1.123,-1.1209,-1.1386,-1.1387,-1.1516,-1.1517,-1.1518]},{"header":{"parameterUnit":"m.s-1","parameterCategory":1,"la1":30.2991,"la2":30.254,"lo1":-89.0895,"lo2":-89.0444,"dy":0.0017,"dx":0.0017,"nx":28,"ny":28,"refTime":"2023-08-15T03:00:00:Z","depth":0,"parameterNumber":3,"parameterNumberName":"V-component_of_WINDS"},"data":[0,0,0,0,0,0,0,0,0,0,0,0,0,0,0,0,0,0,0,0,0,0,0,0,0,0,0,0,0,0,0,0,0,0,0,0,0,0,0,0,0,0,0,0,0,0,0,0,0,0,0,0,0,0,0,0,0,0,-3.813,-3.813,0,-3.8129,-3.8129,-3.8129,-3.8068,-3.8066,-3.8065,-3.8063,-3.8062,-3.8064,-3.8065,0,0,0,0,0,0,0,0,0,0,0,0,0,-3.8077,-3.8078,-3.813,-3.813,-3.813,-3.8129,-3.8129,-3.8129,-3.8068,-3.8066,-3.8064,-3.8062,-3.8062,-3.8064,-3.8065,0,0,0,0,0,0,0,0,0,0,0,0,0,-3.809,-3.8078,-3.813,-3.8099,-3.8096,-3.8129,-3.8129,-3.8129,-3.8069,-3.8066,-3.8064,-3.8061,-3.8061,-3.8063,-3.8066,-3.8127,0,0,-3.8072,-3.8073,0,0,0,0,0,0,0,0,-3.809,-3.8092,-3.8104,-3.8101,-3.8098,-3.8096,-3.811,-3.8128,-3.8069,-3.8079,-3.8063,-3.806,-3.8076,-3.8076,-3.8082,-3.8127,-3.8127,-3.8073,-3.8074,-3.8075,-3.8075,0,0,0,0,0,0,0,-3.8089,-3.8092,-3.8129,-3.8104,-3.8101,-3.8085,-3.8084,-3.8113,-3.8091,-3.8078,-3.8074,-3.8074,-3.8074,-3.808,-3.8081,-3.8127,-3.8073,-3.8074,-3.8076,-3.8077,-3.8222,-3.8225,0,0,0,0,0,0,-3.8092,-3.8092,-3.8129,-3.8129,-3.8088,-3.8088,-3.8087,-3.8099,-3.809,-3.8087,-3.8076,-3.8072,-3.8077,-3.8079,-3.8081,-3.8151,-3.8075,-3.8077,-3.8078,-3.822,-3.8223,-3.8225,0,0,0,0,0,0,-3.8091,-3.8096,-3.8129,-3.8109,-3.8112,-3.8091,-3.8105,-3.81,-3.8106,-3.8089,-3.8085,-3.8087,-3.8075,-3.8078,-3.8116,-3.815,-3.8078,-3.808,-3.8217,-3.8221,-3.8224,-3.8294,0,0,0,0,0,0,-3.809,-3.8096,-3.812,-3.811,-3.8114,-3.8165,-3.8108,-3.8102,-3.811,-3.8104,-3.8098,-3.8094,-3.8073,-3.8113,-3.8118,-3.8152,-3.8082,-3.8213,-3.8218,-3.8223,-3.8288,-3.8299,-3.8309,0,0,0,0,0,-3.8088,-3.8139,-3.8121,-3.8126,-3.8143,-3.8167,-3.8169,-3.8144,-3.8113,-3.8136,-3.8125,-3.8094,-3.8146,-3.8117,-3.8123,-3.8158,-3.8211,-3.8217,-3.8223,-3.8283,-3.8297,-3.8309,0,0,0,0,0,0,-3.8154,-3.8138,-3.8117,-3.8167,-3.8169,-3.8157,-3.8185,-3.816,-3.817,-3.8164,-3.8132,-3.8131,-3.8174,-3.817,-3.8138,-3.8216,-3.8173,-3.818,-3.8218,-3.823,-3.8241,-3.824,-3.8083,0,0,0,0,0,-3.8174,-3.8195,-3.818,-3.8225,-3.8227,-3.8206,-3.8216,-3.8197,-3.8197,-3.8198,-3.8189,-3.8191,-3.8207,-3.8219,-3.8233,-3.8288,-3.8285,-3.8314,-3.8325,-3.8333,-3.8339,-3.8367,-3.8379,-3.8244,-3.8244,-3.8244,0,0,-3.8216,-3.821,-3.8225,-3.8238,-3.8237,-3.826,-3.8207,-3.8234,-3.8249,-3.8202,-3.8237,-3.8231,-3.8231,-3.8277,-3.8297,-3.8275,-3.8376,-3.8341,-3.8348,-3.8349,-3.8374,-3.8387,-3.8398,-3.8248,-3.8247,-3.8247,0,0,-3.8303,-3.8301,-3.8338,-3.8338,-3.8337,-3.8323,-3.8332,-3.8324,-3.8318,-3.8353,-3.8317,-3.8335,-3.8365,-3.8366,-3.837,-3.8457,-3.8429,-3.8463,-3.8517,-3.8544,-3.8554,-3.8563,-3.8593,-3.8605,-3.8469,-3.8469,-3.8469,0,-3.8355,-3.8388,-3.836,-3.8388,-3.8395,-3.8353,-3.8389,-3.8391,-3.8395,-3.84,-3.8375,-3.841,-3.8407,-3.8452,-3.8474,-3.8479,-3.8488,-3.8463,-3.8555,-3.8564,-3.8572,-3.86,-3.8612,-3.8473,-3.8473,-3.8472,-3.8472,0,-3.8451,-3.8474,-3.8504,-3.8508,-3.8518,-3.8551,-3.8528,-3.8541,-3.8521,-3.8509,-3.8544,-3.8539,-3.8551,-3.8561,-3.8542,-3.8603,-3.8589,-3.856,-3.8516,-3.8589,-3.8615,-3.8626,-3.8479,-3.8478,-3.8476,-3.8475,0,0,-3.8579,-3.8568,-3.8579,-3.858,-3.8576,-3.8593,-3.8623,-3.8635,-3.8646,-3.8651,-3.8674,-3.87,-3.8673,-3.8678,-3.8658,-3.8682,-3.875,-3.865,-3.8649,-3.8668,-3.8816,-3.8837,-3.885,-3.8731,-3.8733,-3.8735,-3.8816,0,-3.8663,-3.8714,-3.869,-3.8743,-3.8763,-3.8723,-3.8749,-3.8749,-3.8739,-3.8754,-3.8742,-3.8761,-3.8724,-3.8727,-3.8749,-3.8737,-3.8779,-3.8731,-3.8753,-3.8754,-3.8753,-3.8864,-3.8886,-3.8962,-3.8826,-3.8827,-3.8829,0,-3.8767,-3.8775,-3.883,-3.8821,-3.8829,-3.8853,-3.8861,-3.8876,-3.8875,-3.8866,-3.8871,-3.8846,-3.8874,-3.8831,-3.8869,-3.8837,-3.8845,-3.8841,-3.8843,-3.8843,-3.8795,-3.8866,-3.8986,-3.8997,-3.8845,-3.8843,-3.8842,0,-3.8854,-3.8878,-3.8914,-3.8916,-3.8907,-3.8925,-3.8922,-3.8918,-3.8926,-3.8933,-3.8938,-3.8949,-3.8955,-3.8963,-3.8941,-3.8912,-3.8982,-3.8937,-3.8975,-3.8975,-3.899,-3.8989,-3.9113,-3.8997,-3.8997,-3.8997,-3.8997,0,-3.8949,-3.8984,-3.8952,-3.8974,-3.9012,-3.8984,-3.9022,-3.9015,-3.9012,-3.9031,-3.8998,-3.9017,-3.8987,-3.9003,-3.8987,-3.902,-3.9023,-3.9016,-3.9011,-3.9018,-3.9019,-3.9022,-3.9016,-3.9,-3.8999,-3.8999,-3.8998,0,-3.9051,-3.9032,-3.9068,-3.9056,-3.9054,-3.9082,-3.9072,-3.9091,-3.9078,-3.9103,-3.9108,-3.9088,-3.9105,-3.9084,-3.9099,-3.9088,-3.9133,-3.9121,-3.9134,-3.9129,-3.9167,-3.9164,-3.9296,-3.9311,-3.9187,-3.9189,-3.919,0,-3.9113,-3.9138,-3.9129,-3.9139,-3.9138,-3.9156,-3.9163,-3.9137,-3.9147,-3.9147,-3.9166,-3.9181,-3.919,-3.9219,-3.9206,-3.9217,-3.9204,-3.925,-3.9206,-3.9212,-3.9203,-3.9202,-3.9203,-3.9258,-3.926,-3.9261,-3.9262,0,-3.9223,-3.9212,-3.9224,-3.9234,-3.9244,-3.925,-3.9253,-3.9264,-3.9236,-3.9249,-3.9265,-3.9273,-3.9288,-3.9302,-3.931,-3.9306,-3.928,-3.9276,-3.9285,-3.9292,-3.9298,-3.9294,-3.9157,-3.9273,-3.9272,-3.9271,-3.9271,-3.927,-3.9306,-3.9326,-3.9323,-3.9337,-3.9337,-3.9341,-3.9358,-3.9348,-3.9361,-3.9371,-3.9355,-3.9375,-3.9373,-3.9381,-3.938,-3.9396,-3.9376,-3.939,-3.9393,-3.9396,-3.9401,-3.9297,-3.9397,-3.9397,-3.9397,-3.9397,-3.9396,0,-3.9413,-3.9409,-3.9423,-3.9428,-3.944,-3.9414,-3.9416,-3.9427,-3.9446,-3.9446,-3.9456,-3.9475,-3.9488,-3.9476,-3.9487,-3.9502,-3.949,-3.9505,-3.9503,-3.9503,-3.9419,-3.9409,-3.9515,-3.9515,-3.9515,-3.9515,-3.9515,-3.9515,-3.947,-3.9503,-3.9492,-3.9524,-3.9519,-3.9539,-3.9542,-3.9545,-3.9545,-3.9567,-3.9578,-3.957,-3.9565,-3.9575,-3.9586,-3.9582,-3.9587,-3.9607,-3.9599,-3.9521,-3.9509,-3.9498,-3.9489,-3.9609,-3.9609,-3.9681,-3.9682,-3.9683]}]]